| time (UTC) | temp F | wind direction | speed knots | gust knots | rain 1hr in | rain 24hr in | rain mn in | humidity % | barometer mb |
| 20260502202705 | 50 | 145 | 1.7 | 2.6 | 0.00 | 0.01 | 0.01 | 65 | 1010.0 |
| 20260502202204 | 50 | 146 | 0.9 | 4.3 | 0.00 | 0.01 | 0.01 | 64 | 1010.1 |
| 20260502200705 | 50 | 144 | 1.7 | 2.6 | 0.00 | 0.01 | 0.01 | 65 | 1010.1 |
| 20260502200205 | 50 | 144 | 1.7 | 5.2 | 0.00 | 0.01 | 0.01 | 65 | 1010.2 |
| 20260502194704 | 51 | 117 | 1.7 | 2.6 | 0.00 | 0.01 | 0.01 | 65 | 1010.4 |
| 20260502194204 | 51 | 115 | 3.5 | 7.0 | 0.00 | 0.01 | 0.01 | 64 | 1010.3 |
| 20260502192704 | 50 | 191 | 1.7 | 4.3 | 0.00 | 0.01 | 0.01 | 69 | 1010.4 |
| 20260502192205 | 50 | 171 | 1.7 | 5.2 | 0.00 | 0.01 | 0.01 | 68 | 1010.5 |
| 20260502190204 | 48 | 265 | 0.9 | 2.6 | 0.00 | 0.01 | 0.01 | 74 | 1010.6 |
| 20260502184705 | 47 | 287 | 0.0 | 1.7 | 0.00 | 0.01 | 0.01 | 77 | 1010.7 |
| 20260502184204 | 46 | 286 | 0.9 | 2.6 | 0.01 | 0.01 | 0.01 | 77 | 1010.8 |
| 20260502182705 | 45 | 286 | 1.7 | 2.6 | 0.01 | 0.01 | 0.01 | 80 | 1010.8 |
| 20260502182204 | 45 | 286 | 0.9 | 4.3 | 0.01 | 0.01 | 0.01 | 81 | 1010.8 |
| 20260502180705 | 44 | 287 | 1.7 | 2.6 | 0.01 | 0.01 | 0.01 | 81 | 1010.8 |
| 20260502180204 | 44 | 286 | 2.6 | 4.3 | 0.01 | 0.01 | 0.01 | 80 | 1010.9 |
| 20260502170204 | 46 | 278 | 2.6 | 5.2 | 0.00 | 0.00 | 0.00 | 72 | 1010.8 |
| 20260502164204 | 47 | 305 | 4.3 | 7.0 | 0.00 | 0.00 | 0.00 | 69 | 1010.8 |
| 20260502162704 | 48 | 289 | 2.6 | 6.1 | 0.00 | 0.00 | 0.00 | 67 | 1010.8 |
| 20260502162206 | 48 | 292 | 4.3 | 7.0 | 0.00 | 0.00 | 0.00 | 66 | 1010.8 |
| 20260502160704 | 48 | 297 | 2.6 | 5.2 | 0.00 | 0.00 | 0.00 | 66 | 1010.9 |
| 20260502160204 | 48 | 273 | 1.7 | 5.2 | 0.00 | 0.00 | 0.00 | 66 | 1010.9 |
| 20260502152205 | 48 | 251 | 2.6 | 7.0 | 0.00 | 0.00 | 0.00 | 68 | 1011.3 |
| 20260502150704 | 48 | 270 | 1.7 | 2.6 | 0.00 | 0.00 | 0.00 | 69 | 1011.4 |
| 20260502150204 | 48 | 272 | 3.5 | 7.0 | 0.00 | 0.00 | 0.00 | 69 | 1011.5 |
| 20260502130704 | 41 | 66 | 0.9 | 2.6 | 0.00 | 0.00 | 0.00 | 75 | 1012.0 |
| 20260502130204 | 41 | 66 | 0.0 | 2.6 | 0.00 | 0.00 | 0.00 | 74 | 1012.0 |
| 20260502122704 | 39 | 66 | 0.0 | 2.6 | 0.00 | 0.00 | 0.00 | 75 | 1012.0 |
| 20260502122204 | 39 | 65 | 1.7 | 2.6 | 0.00 | 0.00 | 0.00 | 74 | 1011.9 |
| 20260502120704 | 38 | 65 | 1.7 | 2.6 | 0.00 | 0.00 | 0.00 | 74 | 1011.9 |
| 20260502120204 | 38 | 65 | 1.7 | 2.6 | 0.00 | 0.00 | 0.00 | 74 | 1011.9 |
| 20260502114705 | 38 | 65 | 1.7 | 2.6 | 0.00 | 0.00 | 0.00 | 74 | 1011.9 |
| 20260502112704 | 37 | 65 | 1.7 | 2.6 | 0.00 | 0.00 | 0.00 | 75 | 1011.9 |
| 20260502112204 | 37 | 65 | 1.7 | 4.3 | 0.00 | 0.00 | 0.00 | 76 | 1011.9 |
| 20260502110704 | 36 | 65 | 1.7 | 2.6 | 0.00 | 0.00 | 0.00 | 78 | 1011.9 |
| 20260502110204 | 36 | 65 | 0.9 | 2.6 | 0.00 | 0.00 | 0.00 | 78 | 1011.9 |
| 20260502104704 | 36 | 65 | 1.7 | 2.6 | 0.00 | 0.00 | 0.00 | 77 | 1011.9 |
| 20260502104204 | 36 | 63 | 1.7 | 4.3 | 0.00 | 0.00 | 0.00 | 76 | 1011.8 |
| 20260502102704 | 36 | 63 | 0.9 | 1.7 | 0.00 | 0.00 | 0.00 | 75 | 1011.9 |
| 20260502102204 | 36 | 63 | 0.9 | 4.3 | 0.00 | 0.00 | 0.00 | 75 | 1011.9 |
| 20260502100203 | 36 | 63 | 2.6 | 4.3 | 0.00 | 0.00 | 0.00 | 74 | 1011.6 |
| 20260502090703 | 35 | 65 | 1.7 | 4.3 | 0.00 | 0.00 | 0.00 | 79 | 1011.4 |
| 20260502090203 | 35 | 66 | 1.7 | 6.1 | 0.00 | 0.00 | 0.00 | 79 | 1011.4 |
| 20260502070705 | 36 | 63 | 0.9 | 2.6 | 0.00 | 0.00 | 0.00 | 77 | 1011.3 |
| 20260502070205 | 36 | 63 | 0.9 | 2.6 | 0.00 | 0.00 | 0.00 | 77 | 1011.3 |
| 20260502064705 | 36 | 63 | 0.9 | 2.6 | 0.00 | 0.00 | 0.00 | 77 | 1011.2 |
| 20260502062705 | 36 | 63 | 0.9 | 2.6 | 0.00 | 0.00 | 0.00 | 76 | 1011.2 |
| 20260502062205 | 37 | 63 | 1.7 | 2.6 | 0.00 | 0.00 | 0.00 | 76 | 1011.2 |
| 20260502060206 | 37 | 61 | 0.9 | 1.7 | 0.00 | 0.00 | 0.00 | 76 | 1011.2 |
| 20260502054204 | 37 | 62 | 0.9 | 4.3 | 0.00 | 0.00 | 0.00 | 74 | 1011.2 |
| 20260502052705 | 38 | 62 | 1.7 | 2.6 | 0.00 | 0.00 | 0.00 | 73 | 1011.2 |
| 20260502052205 | 38 | 62 | 1.7 | 2.6 | 0.00 | 0.00 | 0.00 | 72 | 1011.1 |
| 20260502050705 | 39 | 61 | 1.7 | 2.6 | 0.00 | 0.00 | 0.00 | 72 | 1011.1 |
| 20260502050205 | 39 | 61 | 1.7 | 7.0 | 0.00 | 0.00 | 0.00 | 71 | 1011.1 |
| 20260502044705 | 39 | 69 | 0.9 | 2.6 | 0.00 | 0.00 | 0.00 | 72 | 1011.0 |
| 20260502044204 | 39 | 68 | 1.7 | 7.0 | 0.00 | 0.00 | 0.00 | 71 | 1011.1 |
| 20260502042705 | 39 | 71 | 1.7 | 4.3 | 0.00 | 0.00 | 0.00 | 72 | 1011.1 |
| 20260502042205 | 39 | 71 | 1.7 | 2.6 | 0.00 | 0.00 | 0.00 | 73 | 1011.1 |
| 20260502040705 | 39 | 72 | 1.7 | 2.6 | 0.00 | 0.00 | 0.00 | 73 | 1011.2 |
| 20260502040205 | 39 | 72 | 1.7 | 2.6 | 0.00 | 0.00 | 0.00 | 73 | 1011.2 |
| 20260502034705 | 39 | 72 | 0.9 | 2.6 | 0.00 | 0.00 | 0.00 | 72 | 1011.2 |
| 20260502034205 | 39 | 72 | 0.9 | 2.6 | 0.00 | 0.00 | 0.00 | 71 | 1011.1 |
| 20260502032704 | 40 | 72 | 1.7 | 2.6 | 0.00 | 0.00 | 0.00 | 70 | 1011.0 |
| 20260502032205 | 40 | 72 | 0.9 | 2.6 | 0.00 | 0.00 | 0.00 | 69 | 1011.1 |
| 20260502030707 | 41 | 72 | 1.7 | 2.6 | 0.00 | 0.00 | 0.00 | 68 | 1011.1 |
| 20260502030205 | 41 | 71 | 2.6 | 6.1 | 0.00 | 0.00 | 0.00 | 68 | 1011.0 |
| 20260502024705 | 41 | 71 | 2.6 | 4.3 | 0.00 | 0.00 | 0.00 | 67 | 1011.0 |
| 20260502024205 | 42 | 72 | 2.6 | 4.3 | 0.00 | 0.00 | 0.00 | 67 | 1011.0 |
| 20260502022705 | 42 | 71 | 1.7 | 2.6 | 0.00 | 0.00 | 0.00 | 66 | 1011.0 |
| 20260502022205 | 42 | 71 | 1.7 | 4.3 | 0.00 | 0.00 | 0.00 | 65 | 1011.1 |
| 20260502020705 | 43 | 67 | 1.7 | 2.6 | 0.00 | 0.00 | 0.00 | 64 | 1011.0 |
| 20260502020205 | 43 | 66 | 1.7 | 2.6 | 0.00 | 0.00 | 0.00 | 64 | 1011.0 |
| 20260502014705 | 44 | 65 | 1.7 | 4.3 | 0.00 | 0.00 | 0.00 | 63 | 1011.1 |
| 20260502014205 | 44 | 65 | 1.7 | 2.6 | 0.00 | 0.00 | 0.00 | 62 | 1011.1 |
| 20260502012705 | 45 | 65 | 2.6 | 4.3 | 0.00 | 0.00 | 0.00 | 60 | 1011.0 |
| 20260502012205 | 45 | 64 | 2.6 | 6.1 | 0.00 | 0.00 | 0.00 | 60 | 1011.0 |
| 20260502010704 | 46 | 61 | 2.6 | 4.3 | 0.00 | 0.00 | 0.00 | 59 | 1010.8 |
| 20260502010204 | 46 | 33 | 1.7 | 2.6 | 0.00 | 0.00 | 0.00 | 60 | 1010.8 |
| 20260502004704 | 46 | 32 | 0.9 | 2.6 | 0.00 | 0.00 | 0.00 | 57 | 1010.7 |
| 20260502004205 | 46 | 32 | 0.9 | 2.6 | 0.00 | 0.00 | 0.00 | 57 | 1010.7 |
| 20260502002705 | 47 | 31 | 1.7 | 2.6 | 0.00 | 0.01 | 0.00 | 56 | 1010.5 |
| 20260502002205 | 47 | 31 | 0.9 | 2.6 | 0.00 | 0.01 | 0.00 | 57 | 1010.5 |
| 20260502000704 | 47 | 31 | 0.9 | 2.6 | 0.00 | 0.02 | 0.00 | 56 | 1010.4 |
| 20260502000205 | 47 | 31 | 1.7 | 2.6 | 0.00 | 0.02 | 0.00 | 56 | 1010.4 |
| 20260501234704 | 47 | 30 | 1.7 | 2.6 | 0.00 | 0.03 | 0.00 | 55 | 1010.2 |
| 20260501234204 | 47 | 30 | 1.7 | 4.3 | 0.00 | 0.03 | 0.00 | 55 | 1010.2 |
| 20260501232705 | 48 | 5 | 2.6 | 4.3 | 0.00 | 0.03 | 0.00 | 54 | 1009.9 |
| 20260501232205 | 48 | 5 | 1.7 | 5.2 | 0.00 | 0.03 | 0.00 | 53 | 1009.9 |
| 20260501230704 | 48 | 305 | 1.7 | 4.3 | 0.00 | 0.03 | 0.00 | 53 | 1009.9 |
| 20260501230205 | 48 | 292 | 2.6 | 2.6 | 0.00 | 0.03 | 0.00 | 54 | 1009.9 |
| 20260501224705 | 49 | 289 | 0.9 | 2.6 | 0.00 | 0.03 | 0.00 | 54 | 1009.8 |
| 20260501224205 | 49 | 289 | 2.6 | 5.2 | 0.00 | 0.03 | 0.00 | 53 | 1009.9 |
| 20260501222704 | 49 | 291 | 1.7 | 2.6 | 0.00 | 0.03 | 0.00 | 52 | 1009.8 |
| 20260501222205 | 49 | 291 | 1.7 | 5.2 | 0.00 | 0.03 | 0.00 | 51 | 1009.7 |
| 20260501220705 | 51 | 304 | 2.6 | 4.3 | 0.00 | 0.03 | 0.00 | 50 | 1009.8 |
| 20260501214705 | 50 | 257 | 3.5 | 5.2 | 0.00 | 0.03 | 0.00 | 50 | 1009.9 |
| 20260501214205 | 50 | 290 | 4.3 | 7.8 | 0.00 | 0.03 | 0.00 | 50 | 1009.8 |
| 20260501212704 | 50 | 292 | 5.2 | 8.7 | 0.00 | 0.03 | 0.00 | 50 | 1009.8 |
| 20260501212204 | 51 | 273 | 1.7 | 11.3 | 0.00 | 0.03 | 0.00 | 51 | 1009.7 |
| 20260501210704 | 52 | 281 | 2.6 | 5.2 | 0.00 | 0.03 | 0.00 | 48 | 1009.7 |
| 20260501210205 | 53 | 290 | 4.3 | 10.4 | 0.00 | 0.03 | 0.00 | 48 | 1009.6 |
| 20260501204704 | 53 | 301 | 4.3 | 6.1 | 0.00 | 0.03 | 0.00 | 49 | 1009.6 |
| 20260501204205 | 52 | 289 | 2.6 | 7.8 | 0.00 | 0.03 | 0.00 | 49 | 1009.7 |